Regional Weather Roundup
Issued by NWS

Home | Current Version | Previous Version | Graphics & Text | Print | Product List | Glossary On
Versions: 1 2 3 4 5 6 7 8 9 10 11 12 13 14 15 16 17 18 19 20 21 22 23 24 25 26 27 28 29 30 31 32 33 34 35 36 37 38 39 40 41 42 43 44 45 46 47 48
000
ASUS45 KSLC 202010
RWRUT

UTAH REGIONAL WEATHER ROUNDUP
NATIONAL WEATHER SERVICE SALT LAKE CITY UT
200 PM MDT SAT SEP 20 2014

UTZ001>011-023>025-202100-

NORTHERN UTAH

CITY           SKY/WX    TMP DP  RH WIND       PRES   REMARKS
HILL AFB       SUNNY     80  48  32 N9        30.18F
LOGAN          SUNNY     77  50  38 N6        30.18F
OGDEN          SUNNY     81  46  29 N7        30.16F
PROVO AIRPORT  NOT AVBL
SALT LAKE CITY MOSUNNY   81  48  31 NW7       30.14F
VERNAL         SUNNY     78  41  26 SW3       30.22F
WENDOVER       SUNNY     82  41  23 E8        30.17F
HEBER CITY     SUNNY     79  37  22 CALM      30.21F
WEST JORDAN    SUNNY     81  46  30 N8        30.17F

$$

UTZ012>022-026-027-202100-

SOUTHERN UTAH

CITY           SKY/WX    TMP DP  RH WIND       PRES   REMARKS
BRYCE CANYON   MOSUNNY   75  41  29 SE5       30.31F
CEDAR CITY     MOSUNNY   77  47  34 SE7       30.15F
MILFORD        SUNNY     87  46  24 N16       30.11F
MOAB/CYNLANDS  SUNNY     91  38  15 NE12G20   30.05F
PRICE          SUNNY     86  39  19 SE7       30.20F
ST GEORGE      CLEAR     90  48  24 CALM      29.96F
KANAB          CLOUDY    70  52  52 NW17G26   30.12F

$$

REGIONAL REPORTS     COLORADO/ARIZONA

CITY           SKY/WX    TMP DP  RH WIND       PRES   REMARKS
CRAIG, CO      SUNNY     78  31  17 CALM      30.28F
GRAND JUNCTION SUNNY     86  44  23 CALM      30.11F
RIFLE          SUNNY     83  37  19 VRB3      30.17F
MONTROSE       SUNNY     83  45  26 W12       30.19F
CORTEZ         SUNNY     86  44  23 SW12      30.16F
PAGE, AZ       SUNNY     91  46  21 N7        30.05F
GRAND CANYON   PTSUNNY   77  48  35 E12       30.22F
KINGMAN        MOSUNNY   89  46  22 SW12G17   30.01F
FLAGSTAFF      MOSUNNY   78  44  29 E8G21     30.25F

$$

REGIONAL REPORTS    NEVADA/IDAHO/WYOMING

CITY           SKY/WX    TMP DP  RH WIND       PRES   REMARKS
LAS VEGAS, NV  MOSUNNY   94  42  16 VRB3      29.88F HX  90
ELY            MOSUNNY   80  39  23 VRB5      30.21F
ELKO           MOSUNNY   85  41  21 VRB3      30.15F
POCATELLO, ID  SUNNY     76  44  32 VRB3      30.21F
BURLEY         SUNNY     76  44  32 VRB5      30.17F
EVANSTON, WY   SUNNY     75  30  19 N6        30.34F
ROCK SPRINGS   SUNNY     71  33  24 VRB5      30.33F

$$


USA.gov is the U.S. government's official web portal to all federal, state and local government web resources and services.